Location: Waco, TX
(31.5480°N, 97.1670°W)
Time: 08:36:48
(UTC-06:00)

ISS - Pass Details

Date: 18 November 2017
Orbit: 402 x 407 km, 51.6° (Epoch: 23 November)

Event Time Altitude Azimuth Distance (km) Brightness Sun altitude
Rises 06:12:00 0° 309° (NW) 2,311 - -10.4°
Reaches altitude 10° 06:14:07 10° 304° (NW) 1,449 - -9.9°
Exits shadow 06:14:37 14° 302° (WNW) 1,247 -2.0 -9.8°
Maximum altitude 06:17:16 49° 228° (SW) 520 -3.5 -9.3°
Drops below altitude 10° 06:20:24 10° 152° (SSE) 1,442 -0.3 -8.7°
Sets 06:22:30 0° 147° (SSE) 2,298 0.9 -8.2°
